Погода в Балхаше

Погода в Балхаше : погода сейчас, прогноз погоды и архив. Всё, что Вы хотите узнать о погоде в Балхаше!

Хотите узнать прогноз погоды в Балхаше? Тогда Вам сюда: Погода в Балхаше

Поиск расширенной информации на нашем сайте:

Другие новости

Новости СМИ2

Главная страница сайта

Новости сайта

02.10.2013

Напоминаем, что на нашем новом сайте вы можете получить высокодетализированные прогнозы погоды по пунктам России, СНГ и мира (включающие важные для авиации метеовеличины, такие как направление и скорость ветра, видимость, явления погоды, количество и форма облачности, нижняя и верхняя граница облачности), а также ознакомиться с разнообразными материалами по авиационной метеорологии и подборкой полезных ссылок на эту тему.

Сайт Метеоцентр.Азия посвящён разработке технологий оптимизации авиаметеорологического обслуживания, включая проектирование и перспективное создание нескольких автоматизированных авиаметеорологических систем:
- система выпуска высокодетальных прогностических карт явлений погоды для нижнего воздушного пространства по России и ближнему зарубежью;
- система верификации прогнозов TAF (выпускаемых синоптиками официальных АМСГ РФ и ближнего зарубежья) и AUTOTAF (выпускаемых сайтом Метеоцентр.Азия) - выявление ошибок, онлайн-сопоставление с фактической погодой METAR, автоматическое внесение коррективов в прогнозы при резком отклонении фактической погоды от прогноза, подсчёт оправдываемости прогнозов по элементам и в целом;
- система обработки, анализа и отображения авиаметеорологической информации для применения провайдерами метеорологической информации.


Погода в Балхаше - сегодня

Время (UTC), дата Ветер
(°,м/с) 
Видим.   Явления Облачность Т
(°С)
Тd
(°С)
f(%) Тe
(°С)
Pmin
(гПа)
dP
(гПа)
Po
(мм)
O2
(г/м3)
Тmin Tmax R s Состояние
почвы
00 24.05.17 230 (ЮЗ) 20000 м    ясно 
+15.6 +12 79 +22  1014.5  0.3  730  276           
03 24.05.17 230 (ЮЗ) 20000 м    ясно 
+21 +10.5 51 +23  1014.6  0.8  731  272           
06 24.05.17 200 (Ю) 20000 м    8/1 1000 м верхняя 
[Cu hum|Ci fib]
+21.6 +14 62 +29  1014.1  -0.4  731  270  +15         
09 24.05.17 180 (Ю) 20000 м    3/3 1000 м верхняя 
[Cu med, cong|Ci sp]
+23.8 +15.2 59 +34  1012.3  -1.4  730  267           
12 24.05.17 180 (Ю) 10 км    9/1 1000 м средняя, верхняя 
[Sc diur, vesp|Ac trans|Ci sp]
+22 +15.9 68 +33  1011.1  -1.4  729  268           
15 24.05.17 тихо ()   10 км    10/0 верхняя 
[Ci sp]
+21.4 +15.8 70 +32  1010.8  -0.3  728  269    +24.6       
18 24.05.17 250 (З) 10 км    ясно 
+20.5 +12.5 60 +26  1011.4  0.4  729  271    +24.6       
21 24.05.17 020 (С) 10 км    ясно 
+18.6 +7.8 49 +19  1011.9  0.1  729  274           
00 25.05.17 050 (СВ) 20000 м    4/0 верхняя 
[Ci sp]
+17.2 +9.3 60 +18  1012.4  0.3  729  275           
03 25.05.17 050 (СВ) 20000 м    8/0 верхняя 
[Ci sp]
+22.4 +9.9 45 +24  1012.3  0.6  729  270           
06 25.05.17 360 (С) 20000 м    4/1 1000 м верхняя 
[Cu hum|Ci fib]
+28.2 +7.4 27 +28  1011.4  -0.1  729  265  +17.2         
09 25.05.17 230 (ЮЗ) 20000 м    4/4 1000 м 
[Cu med, cong]
+26.7 +13.1 43 +33  1010.4  -1.1  728  265           
12 25.05.17 020 (С) 10  10 км    6/3 1000 м средняя, верхняя 
[Sc|Ac cast|Ci ing]
+24.8 +9.7 38 +26  1011.6  0.9  729  268           
15 25.05.17 360 (С) 10 км    8/1 1000 м верхняя 
[Sc|Ci sp]
+23.2 +8.3 38 +23  1012  0.1  729  269    +28.9       
18 25.05.17 070 (В) 10 км    8/8 1000 м 
[Sc]
+18.4 +10.9 62 +22  1014.6  1.9  731  274    +28.9       
21 25.05.17 050 (СВ) 10 км    ясно 
+15.8 +11.8 77 +19  1015.3  0.4  731  276           
00 26.05.17 050 (СВ) 20000 м    9/0 средняя, верхняя 
[Ac trans|Ci sp]
+14.4 +10.2 76 +16  1017.5  1.9  732  278           
03 26.05.17 050 (СВ) 20000 м    4/0 верхняя 
[Ci sp]
+19.3 +8 48 +19  1018  1.1  733  275           
06 26.05.17 180 (Ю) 20000 м    3/1 1000 м верхняя 
[Cu med, cong|Ci sp]
+21.6 +11.3 52 +25  1017.9  0.2  733  272  +14.4         
09 26.05.17 180 (Ю) 20000 м    3/1 1000 м верхняя 
[Cu med, cong|Ci sp]
+22.2 +13.1 56 +28  1016.8  -0.9  733  270           
12 26.05.17 200 (Ю) 20000 м    4/3 1000 м средняя 
[Sc|Ac cast]
+23 +13.1 54 +29  1016.7  733  270           
15 26.05.17 320 (СЗ) 10 км    3/0 верхняя 
[Ci sp]
+22.5 +5.6 33 +23  1017.3  0.4  733  272    +25.4       
18 26.05.17 050 (СВ) 10 км    ясно 
+17.7 +0.6 32 +18  1017.7  -0.3  733  277    +25.4       
21 26.05.17 070 (В) 10 км    1/0 средняя 
[Ac trans]
+17 +0.4 32 +17  1018.1  0.3  733  278           
00 27.05.17 050 (СВ) 20000 м    9/3 1000 м верхняя 
[Sc|Ci sp]
+14.8 +0.1 37 +14  1018.8  0.4  733  280           
Время (UTC), дата Ветер
(°,м/с) 
Видим.   Явления Облачность Т
(°С)
Тd
(°С)
f(%) Тe
(°С)
Pmin
(гПа)
dP
(гПа)
Po
(мм)
O2
(г/м3)
Тmin Tmax R s Состояние
почвы

Для получения пояснительной информации подведите курсор к названию столбца.

ПОГОДА в Балхаше - архив

Всё, что Вы хотите узнать о погоде в Балхаше - удобно и подробно!

Выберите нужную дату (начиная с 1 января 2015* года) и нажмите кнопку "Найти".
Будут отображены архивные сводки погоды по пункту Балхаш, начиная с указанной даты.


Отображать данные в формате CSV (для использования в таблицах Excel)


Внимание! Наш архив погоды предназначен исключительно для личного некоммерческого использования в познавательных целях. Если Вам необходимы официальные справки о состоянии погоды (для производственных, юридических, коммерческих и т.п. целей), обращайтесь в органы Росгидромета.

*Примечание: данная дата относится к архиву по метеостанциям СССР (Россия, СНГ, Балтия).
Архив по метеостанциям Зарубежной Европы и Азии (кроме Китая) хранится 10 дней, по другим регионам земного шара (Китай, Африка, Америка, Австралия, Океания) - 1 день.

Балхаш - район местоположения метеостанции


Название, широта, долгота, высота метеостанции:
Балхаш 46.8°ш. 75.1°д. 350 м над ур. моря [Казахстан]

Дополнительная информация

В oтличие oт бoльшинства пoгoдных сайтoв мы публикуем пoдрoбную метеoинфoрмацию в детальнoм прoфессиoнальнoм фoрмате.

Характеристики температуры и влажнoсти вoздуха измеряются на высoте 2 м в тени вдали oт зданий и деревьев.
Скoрoсть ветра измеряется на высoте 10 м (на урoвне рoста челoвека скoрoсть ветра ниже в 1.5-2 раза). Если метеoстанция нахoдится в гoрoде или в лесу, тo скoрoсть ветра занижена на 2-4 м/с пo сравнению с oткрытым местoм. Скoрoсть ветра над акватoриями крупных рек и oзёр, а также на вершинах хoлмoв на 2-5 м/с выше, чем в oбычных услoвиях.
Атмoсфернoе давление в разных тoчках местнoсти мoжет значительнo oтличаться oт давления на метеoстанции, в зависимoсти oт услoвий рельефа (при пoдъёме на 10 м давление пoнижается примернo на 1 мм рт.ст.).